Location: Alafon
(8.4500°N, 4.2333°E)
Time: 23:59:25
(UTC+00:00)

Vanguard 2 Rocket - Visible Passes

Search period start: 28 July 2021 00:00
Search period end: 07 August 2021 00:00
Orbit: 555 x 3325 km, 32.9° (Epoch: 28 July)

Date Brightness Start Highest point End Pass type
(mag) Time Alt. Az. Time Alt. Az. Time Alt. Az.
28 Jul 8.6 03:11:05 23° SE 03:11:05 23° SE 03:14:34 10° ESE visible
28 Jul 10.8 18:49:45 10° WSW 19:01:45 21° SSW 19:15:01 10° SSE visible
29 Jul 6.7 04:20:43 26° SW 04:24:30 74° SSE 04:28:59 10° ENE visible
29 Jul 10.9 20:19:22 10° SSW 20:21:46 10° SSW 20:24:08 10° S visible
30 Jul 7.7 03:24:31 44° SSE 03:24:43 44° SSE 03:29:45 10° ENE visible
30 Jul 10.9 19:09:08 10° SW 19:17:41 14° SSW 19:26:41 10° S visible
31 Jul 9.1 02:28:19 19° ESE 02:28:19 19° ESE 02:30:07 10° E visible
31 Jul 6.9 04:34:07 20° WSW 04:38:30 54° NW 04:42:57 10° NE visible
31 Jul 10.8 18:03:40 10° WSW 18:14:05 19° SSW 18:26:16 10° SSE visible
01 Aug 7.0 03:37:53 65° SW 03:38:58 84° SSE 03:44:10 10° ENE visible
02 Aug 8.4 02:41:38 36° E 02:41:38 36° E 02:45:02 10° ENE visible
02 Aug 7.9 04:47:26 13° W 04:52:22 28° NW 04:56:26 10° NNE visible
02 Aug 10.9 18:23:24 10° SW 18:30:14 13° SSW 18:37:38 10° S visible
03 Aug 9.8 01:45:21 10° E 01:45:21 10° E 01:45:27 10° E visible
03 Aug 7.3 03:51:09 44° W 03:52:55 54° NW 03:58:05 10° NE visible
04 Aug 7.7 02:54:51 58° NE 02:54:51 58° NE 02:59:19 10° NE visible
04 Aug 8.6 05:02:34 10° WNW 05:06:20 16° NW 05:09:21 10° N visible
05 Aug 9.4 01:58:30 20° ENE 01:58:30 20° ENE 02:00:11 10° ENE visible
05 Aug 8.1 04:04:18 26° WNW 04:06:45 31° NW 04:11:37 10° NNE visible
06 Aug 7.8 03:07:56 53° NNW 03:07:56 53° NNW 03:13:12 10° NE visible
06 Aug 10.9 21:20:42 10° S 21:21:31 11° S 21:21:31 11° S visible
